COSMOS 1275 DEB, 18902

Orbit data source: Space-Track

COSMOS 1275 DEB, 18902 is space debris in LEO originally from a launch on Thu, 04 Jun 1981 UTC launched from the Plesetsk Missile And Space Complex (PKMTR). Debris objects in space refer to the collection of defunct objects orbiting the Earth. Examples of debris include non-operational satellites, rocket bodies, and fragments generated from explosions, collisions, or faulty payload assembly.

Loading next visibility...
Identifier
18902, 1981-053MB
Orbit
LEO
Country
Flag of CISCIS
Related business
Manufacturer
Unknown
Mission
Spacecraft
Bus & Motor
Unknown
Mass
Unknown
Launch date (UTC)
1981-06-04 (45 years ago)
Launch vehicle
Unknown
Launch site
Plesetsk Missile And Space Complex (PKMTR)
Object type
Payload
Rocket body
Debris
Shape & HBR
Unknown shape, 0.1 m
Radar Cross Section
Small (<0.1 m²)

Expand to show TLE details & history
Last TLE update: 9 hours ago

TLE from 9 hours ago
0 COSMOS 1275 DEB
1 18902U 81053MB  26072.82512743  .00012042  00000-0  27668-2 0  9996
2 18902  82.9454  21.4188 0011813 159.1318 201.0368 14.55349543651421
Epoch: 2026-03-13T19:48Z
TLE epoch observation values (Epoch: 2026-03-13T19:48:11.009Z)
Latitude
0.00001°
Longitude
-87.08218°
Altitude
719.058 km
Speed
7.492 km/s
True Right ascension
01h 25m 40s
True Declination
0° 00' 00"
Sunlit
Object was in daylight at epoch
Visualization orbit readout
Latitude
Unknown
Longitude
Unknown
Altitude
Unknown
Speed
Unknown
Apparent Right ascension
Unknown
Apparent Declination
Unknown
Sunlit
N/A
Visualization observer readout
Local Sidereal Time
09:32:14
Azimuth
Unknown
Elevation
Unknown
Doppler factor
Unknown
Orbital elements
Apogee altitude
713.636 km
Perigee altitude
696.901 km
Semi-major axis
7,083.405 km
Eccentricity
0.00118
Inclination
82.9454°
RAAN
21.4188°
Arg. of periapsis
159.1318°
True anomaly
200.98827°
Mean anomaly
201.0368°
Eccentric anomaly
201.01253°
Mean motion
3.64066 °/min
Orbital period
98.88 mins
BSTAR
0.0027668
Loading maneuver chart data...
Computing Atmospheric mass density...
Loading historical data...
Loading historical data...
Loading historical data...
Loading historical data...
Loading historical data...
Loading historical data...
Loading historical data...

Documentation

Showing up to 5 results
|